Regional Weather Roundup
Issued by NWS Cleveland, OH

Home | Current Version | Previous Version | Graphics & Text | Print | Product List | Glossary On
Versions: 1 2 3 4 5 6 7 8 9 10 11 12 13 14 15 16 17 18 19 20 21 22 23 24 25 26 27 28 29 30 31 32 33 34 35 36 37 38 39 40 41 42 43 44 45 46 47 48 49 50
000
ASUS41 KCLE 011910
RWRCLE
OHIO REGIONAL WEATHER ROUNDUP
NATIONAL WEATHER SERVICE WILMINGTON, OH
200 PM EST SUN MAR 01 2015

NOTE: "FAIR" INDICATES FEW OR NO CLOUDS BELOW 12,000 FEET WITH NO
SIGNIFICANT WEATHER AND/OR OBSTRUCTIONS TO VISIBILITY.

OHZ001>008-015>018-024>027-034-035-043-044-012000-
   NORTHWEST OHIO

CITY           SKY/WX    TMP DP  RH WIND       PRES   REMARKS
DEFIANCE       LGT SNOW  24  18  77 NW3       30.30F VSB 1
FINDLAY        LGT SNOW  25  21  85 W5        30.28F FOG     WCI  19
TOLEDO EXPRESS LGT SNOW  22  18  85 W5        30.29F FOG     WCI  16
TOLEDO EXEC    LGT SNOW  24  19  81 W6        30.29F VSB 1   WCI  17
LIMA           LGT SNOW  27  22  81 NW6       30.28F WCI  20
$$

OHZ009>014-019>023-028>033-038-089-012000-
   NORTHEAST OHIO

CITY           SKY/WX    TMP DP  RH WIND       PRES   REMARKS
CLE-HOPKINS    SNOW      28  25  88 W7        30.30F VSB 1/2 WCI  21
CLE-LAKEFRONT  LGT SNOW  26  23  88 W8        30.28F VSB 3/4 WCI  18
CUY CO. ARPT   LGT SNOW  30  28  93 W7        30.28F FOG     WCI  23
LORAIN-ELYRIA  LGT SNOW  26  24  92 W5        30.28F VSB 3/4 WCI  20
ASHTABULA      LGT SNOW  28  24  85 SW6       30.26F FOG     WCI  22
AKRON-CANTON   LGT SNOW  32  29  88 SW8       30.24F VSB 1   WCI  25
WOOSTER        LGT SNOW  31  29  92 SW6       30.25F FOG     WCI  25
MANSFIELD      LGT SNOW  30  26  85 W3        30.24F FOG
YOUNGSTOWN     LGT SNOW  32  28  85 SW8       30.23F FOG     WCI  25
$$

OHZ042-051>053-060>062-070>072-077>081-012000-
  SOUTHWEST OHIO

CITY           SKY/WX    TMP DP  RH WIND       PRES   REMARKS
CINC-COVINGTON LGT RAIN  34  30  85 NW6       30.28F VSB 1   WCI  29
CINC-LUNKEN    CLOUDY    32  31  96 CALM      30.31F FOG
HAMILTON       CLOUDY    33  31  92 CALM      30.30F FOG
DAYTON         CLOUDY    32  30  92 W5        30.27F FOG     WCI  27
WRIGHT-PAT AFB LGT SNOW  31  30  94 SW5       30.27F FOG     WCI  27
DAYTON GENERAL CLOUDY    32  31  96 W6        30.26F FOG     WCI  26
WILMINGTON     LGT RAIN  33  30  88 W5        30.26F FOG     WCI  29
$$

OHZ036-037-039>041-045>050-054>059-063>069-073>076-082>088-012000-
  CENTRAL AND SOUTHEAST OHIO

CITY           SKY/WX    TMP DP  RH WIND       PRES   REMARKS
COLUMBUS       CLOUDY    32  30  92 CALM      30.27F FOG
OSU AIRPORT    CLOUDY    33  30  88 SW5       30.26F FOG     WCI  29
BOLTON FIELD   CLOUDY    32  32 100 SW5       30.27F WCI  27
RICKENBACK AFB MIX PCPN  32  30  94 SW3       30.28F
NEWARK         CLOUDY    34  31  88 S5        30.26F FOG     WCI  30
MARION         LGT SNOW  29  25  85 NW5       30.26F VSB 3/4 WCI  24
LANCASTER      CLOUDY    35  32  88 SW3       30.27F FOG
ZANESVILLE     LGT SNOW  33  31  92 S6        30.27F FOG     WCI  28
NEW PHILLY     LGT SNOW  35  31  85 SW5       30.27F FOG
$$


USA.gov is the U.S. government's official web portal to all federal, state and local government web resources and services.